TimeCDT,TemperatureF,Dew PointF,Humidity,Sea Level PressureIn,VisibilityMPH,Wind Direction,Wind SpeedMPH,Gust SpeedMPH,PrecipitationIn,Events,Conditions,WindDirDegrees,DateUTC
12:53 AM,39.0,28.9,67,29.94,10.0,NW,13.8,-,N/A,,Scattered Clouds,320,2012-09-22 05:53:00
1:00 AM,39.2,30.2,70,29.92,10.0,NNW,16.1,20.7,N/A,,Mostly Cloudy,330,2012-09-22 06:00:00
1:53 AM,39.9,34.0,79,29.96,7.0,NW,13.8,23.0,0.01,Rain,Light Rain,320,2012-09-22 06:53:00
2:07 AM,39.2,35.6,87,29.95,4.0,NNW,12.7,23.0,0.00,,Haze,330,2012-09-22 07:07:00
2:53 AM,43.0,37.0,80,29.98,10.0,North,18.4,26.5,0.00,,Overcast,360,2012-09-22 07:53:00
3:53 AM,44.1,36.0,73,30.01,10.0,North,17.3,27.6,N/A,,Overcast,10,2012-09-22 08:53:00
4:53 AM,45.0,37.0,74,30.05,10.0,North,12.7,-,N/A,,Overcast,10,2012-09-22 09:53:00
5:53 AM,45.0,36.0,71,30.10,10.0,North,16.1,21.9,N/A,,Mostly Cloudy,360,2012-09-22 10:53:00
6:53 AM,45.0,35.1,68,30.14,10.0,North,9.2,-,N/A,,Overcast,360,2012-09-22 11:53:00
8:53 AM,45.0,33.1,63,30.21,10.0,North,13.8,19.6,N/A,,Overcast,360,2012-09-22 13:53:00
9:53 AM,46.0,33.1,61,30.22,10.0,North,11.5,19.6,N/A,,Overcast,350,2012-09-22 14:53:00
10:21 AM,46.4,33.8,62,30.20,10.0,NNW,11.5,-,N/A,,Mostly Cloudy,330,2012-09-22 15:21:00
10:53 AM,48.9,33.1,54,30.23,10.0,NNW,17.3,21.9,N/A,,Scattered Clouds,330,2012-09-22 15:53:00
11:53 AM,51.1,30.9,46,30.23,10.0,North,13.8,20.7,N/A,,Mostly Cloudy,350,2012-09-22 16:53:00
12:53 PM,52.0,30.0,43,30.23,10.0,NNW,13.8,21.9,N/A,,Scattered Clouds,340,2012-09-22 17:53:00
1:53 PM,52.0,30.0,43,30.23,10.0,NNW,11.5,19.6,N/A,,Mostly Cloudy,330,2012-09-22 18:53:00
2:53 PM,53.1,28.9,40,30.23,10.0,WNW,16.1,21.9,N/A,,Mostly Cloudy,300,2012-09-22 19:53:00
3:53 PM,54.0,28.0,37,30.22,10.0,NNW,15.0,-,N/A,,Mostly Cloudy,340,2012-09-22 20:53:00
4:53 PM,54.0,27.0,35,30.22,10.0,NNW,18.4,21.9,N/A,,Partly Cloudy,340,2012-09-22 21:53:00
5:53 PM,54.0,27.0,35,30.23,10.0,NNW,10.4,-,N/A,,Clear,340,2012-09-22 22:53:00
6:53 PM,51.1,27.0,39,30.23,10.0,North,12.7,-,N/A,,Clear,350,2012-09-22 23:53:00
7:53 PM,46.0,28.0,50,30.24,10.0,North,3.5,-,N/A,,Clear,350,2012-09-23 00:53:00
8:53 PM,41.0,30.0,65,30.26,10.0,Calm,Calm,-,N/A,,Clear,0,2012-09-23 01:53:00
9:53 PM,37.9,30.0,73,30.27,10.0,Calm,Calm,-,N/A,,Clear,0,2012-09-23 02:53:00
10:53 PM,39.0,28.9,67,30.28,10.0,North,4.6,-,N/A,,Clear,350,2012-09-23 03:53:00
11:53 PM,37.9,28.9,70,30.27,10.0,Calm,Calm,-,N/A,,Clear,0,2012-09-23 04:53:00